Weather History for Klamath Falls, OR

Change the Weather History Date:

Friday, October 3, 2014

  Actual Average Record
Temperature  
Mean Temperature 58 °F 52 °F  
Max Temperature 79 °F 70 °F 88 °F (1980)
Min Temperature 36 °F 34 °F 24 °F (1976)
Degree Days  
Heating Degree Days 7 13  
Month to date heating degree days 37 38  
Since 1 July heating degree days 213 394  
Cooling Degree Days 0 0  
Month to date cooling degree days 0 0  
Year to date cooling degree days 327 169  
Growing Degree Days 8 (Base 50)    
Moisture  
Dew Point 36 °F    
Average Humidity 54    
Maximum Humidity 85    
Minimum Humidity 16    
Precipitation  
Precipitation 0.00 in 0.01 in 0.36 in (1928)
Month to date precipitation 0.00 0.02  
Year to date precipitation 8.46 10.29  
Sea Level Pressure  
Sea Level Pressure 30.25 in    
Wind  
Wind Speed 3 mph (NW)    
Max Wind Speed 10 mph    
Max Gust Speed 16 mph    
Visibility 10 miles    
Events      
T = Trace of Precipitation, MM = Missing Value Source: NWS Daily Summary

Daily Weather History Graph

Daily Weather History Graph

Search for Another Location

Airport:

Trip Planner

Search our weather history database for the weather conditions in past years. The results will help you decide how hot, cold, wet, or windy it might be!

Date:

Astronomy

Oct. 03, 2014 Rise Set
Actual Time 7:06 AM PDT 6:44 PM PDT
Civil Twilight 6:38 AM PDT 7:12 PM PDT
Nautical Twilight 6:05 AM PDT 7:45 PM PDT
Astronomical Twilight 5:33 AM PDT 8:17 PM PDT
Moon 3:47 PM PDT (10/3) 1:27 AM PDT (10/3)
Length of Visible Light 12h 34m
Length of Day
11h 38m
Waxing Gibbous, 72% of the Moon is Illuminated
Oct 3
Waxing Gibbous
Oct 8
Full
Oct 15
Last Quarter
Oct 23
New
Oct 30
First Quarter

Hourly Weather History & Observations

Time (PDT) Temp. Windchill Dew Point Humidity Pressure Visibility Wind Dir Wind Speed Gust Speed Precip Events Conditions
12:53 AM 44.1 °F 42.5 °F 37.0 °F 76% 30.25 in 10.0 mi SSW 3.5 mph - N/A   Clear
1:53 AM 42.1 °F - 36.0 °F 79% 30.26 in 10.0 mi Calm Calm - N/A   Clear
2:53 AM 42.1 °F - 37.9 °F 85% 30.25 in 10.0 mi Calm Calm - N/A   Clear
3:53 AM 39.9 °F 36.7 °F 35.1 °F 83% 30.26 in 10.0 mi NNE 4.6 mph - N/A   Clear
4:53 AM 39.9 °F - 35.1 °F 83% 30.26 in 10.0 mi Calm Calm - N/A   Clear
5:53 AM 39.0 °F 36.8 °F 34.0 °F 82% 30.27 in 10.0 mi East 3.5 mph - N/A   Clear
6:53 AM 39.0 °F - 35.1 °F 86% 30.30 in 10.0 mi Calm Calm - N/A   Clear
7:53 AM 44.1 °F - 39.0 °F 82% 30.31 in 10.0 mi Calm Calm - N/A   Clear
8:53 AM 53.1 °F - 42.1 °F 66% 30.32 in 10.0 mi NNW 8.1 mph - N/A   Clear
9:53 AM 57.9 °F - 37.9 °F 47% 30.30 in 10.0 mi North 9.2 mph - N/A   Clear
10:53 AM 62.1 °F - 37.9 °F 41% 30.30 in 10.0 mi WNW 4.6 mph - N/A   Clear
11:53 AM 66.0 °F - 37.0 °F 34% 30.29 in 10.0 mi WNW 4.6 mph - N/A   Clear
12:53 PM 71.1 °F - 37.9 °F 30% 30.25 in 10.0 mi Variable 3.5 mph - N/A   Clear
1:53 PM 75.0 °F - 36.0 °F 24% 30.23 in 10.0 mi Calm Calm - N/A   Clear
2:53 PM 77.0 °F - 30.0 °F 18% 30.20 in 10.0 mi Variable 3.5 mph - N/A   Clear
3:53 PM 78.1 °F - 30.0 °F 17% 30.20 in 10.0 mi South 3.5 mph - N/A   Clear
4:53 PM 78.1 °F - 28.9 °F 17% 30.19 in 10.0 mi Calm Calm - N/A   Clear
5:53 PM 75.9 °F - 32.0 °F 20% 30.19 in 10.0 mi WNW 5.8 mph - N/A   Clear
6:53 PM 66.0 °F - 37.0 °F 34% 30.22 in 10.0 mi Calm Calm - N/A   Clear
7:53 PM 61.0 °F - 37.0 °F 41% 30.22 in 10.0 mi NW 3.5 mph - N/A   Clear
8:53 PM 54.0 °F - 37.9 °F 55% 30.22 in 10.0 mi Calm Calm - N/A   Clear
9:53 PM 50.0 °F - 39.0 °F 66% 30.23 in 10.0 mi South 3.5 mph - N/A   Clear
10:53 PM 48.0 °F - 36.0 °F 63% 30.24 in 10.0 mi NNE 3.5 mph - N/A   Clear
11:53 PM 51.1 °F - 42.1 °F 71% 30.23 in 10.0 mi NW 8.1 mph - N/A   Clear